Terminal Aerodrome Forecast
Issued by NWS

Home | Current Version | Previous Version | Graphics & Text | Print | Product List | Glossary On
Versions: 1 2 3 4 5 6 7 8 9 10 11 12 13 14 15 16 17 18 19
000
FTUS43 KABR 222323
TAFMBG
TAF
KMBG 222323Z 2300/2324 14018KT P6SM SCT200
     FM230400 13011KT P6SM SCT200
     FM231600 12008KT P6SM OVC015
      TEMPO 2320/2324 -RA=

USA.gov is the U.S. government's official web portal to all federal, state and local government web resources and services.